ANA462 ROAH-RJTT

Flight info

Callsign ANA462
Flight time 1h 45m
Altitude 39000
Route AMAMI Y574 SHIBK Y57 SUKBO Y571 BILLY Y21 AKSEL
Aircraft B77W/H-SDE1E2E3FGHIJ2J3J5M1P2RWY/LB1D1

Departure

Time 2026-05-04 14:49
Airport Naha International Airport (ROAH)

Arrival

Time 2026-05-04 16:35
Airport Tokyo Haneda International Airport (RJTT)
Time Latitude Longitude Altitude Speed Heading
2026-05-04 14:24 26.20717 127.64848 26 ft 0 kts 47°
2026-05-04 14:38 26.20716 127.64847 26 ft 2 kts 47°
2026-05-04 14:38 26.20700 127.64825 30 ft 3 kts 50°
2026-05-04 14:38 26.20684 127.64807 27 ft 4 kts 34°
2026-05-04 14:38 26.20661 127.64797 27 ft 4 kts 351°
2026-05-04 14:39 26.20640 127.64809 28 ft 4 kts 302°
2026-05-04 14:39 26.20633 127.64835 30 ft 4 kts 267°
2026-05-04 14:39 26.20634 127.64865 30 ft 4 kts 267°
2026-05-04 14:40 26.20634 127.64872 25 ft 2 kts 267°
2026-05-04 14:42 26.20634 127.64871 25 ft 1 kts 267°
2026-05-04 14:43 26.20633 127.64840 24 ft 8 kts 268°
2026-05-04 14:43 26.20610 127.64764 28 ft 14 kts 217°
2026-05-04 14:43 26.20500 127.64750 24 ft 19 kts 177°
2026-05-04 14:43 26.20367 127.64757 24 ft 19 kts 178°
2026-05-04 14:44 26.20235 127.64763 25 ft 19 kts 177°
2026-05-04 14:44 26.20103 127.64770 23 ft 19 kts 178°
2026-05-04 14:44 26.19970 127.64776 24 ft 19 kts 178°
2026-05-04 14:44 26.19838 127.64782 23 ft 19 kts 178°
2026-05-04 14:45 26.19706 127.64788 23 ft 19 kts 178°
2026-05-04 14:45 26.19574 127.64795 24 ft 19 kts 177°
2026-05-04 14:45 26.19441 127.64801 25 ft 19 kts 177°
2026-05-04 14:45 26.19309 127.64808 23 ft 19 kts 177°
2026-05-04 14:46 26.19177 127.64814 23 ft 19 kts 177°
2026-05-04 14:46 26.19045 127.64820 24 ft 19 kts 178°
2026-05-04 14:46 26.18912 127.64825 23 ft 19 kts 178°
2026-05-04 14:46 26.18779 127.64831 28 ft 19 kts 177°
2026-05-04 14:47 26.18646 127.64838 23 ft 19 kts 177°
2026-05-04 14:47 26.18513 127.64845 23 ft 19 kts 177°
2026-05-04 14:47 26.18380 127.64851 23 ft 19 kts 178°
2026-05-04 14:47 26.18283 127.64851 23 ft 11 kts 189°
2026-05-04 14:48 26.18244 127.64783 25 ft 12 kts 265°
2026-05-04 14:48 26.18241 127.64689 20 ft 13 kts 273°
2026-05-04 14:48 26.18291 127.64648 22 ft 9 kts 357°
2026-05-04 14:48 26.18409 127.64642 23 ft 34 kts 358°
2026-05-04 14:49 26.18914 127.64620 24 ft 113 kts 358°
2026-05-04 14:49 26.19939 127.64569 27 ft 177 kts 359°
2026-05-04 14:49 26.21182 127.64498 731 ft 177 kts 359°
2026-05-04 14:49 26.22412 127.64421 1596 ft 179 kts
2026-05-04 14:50 26.23668 127.64376 2312 ft 188 kts
2026-05-04 14:50 26.25086 127.64325 2584 ft 218 kts 357°
2026-05-04 14:50 26.26607 127.63778 2906 ft 243 kts 337°
2026-05-04 14:50 26.28279 127.63411 3447 ft 249 kts 11°
2026-05-04 14:51 26.29841 127.64236 4226 ft 258 kts 44°
2026-05-04 14:51 26.30805 127.65938 4933 ft 264 kts 68°
2026-05-04 14:51 26.31566 127.67880 5513 ft 283 kts 67°
2026-05-04 14:51 26.32447 127.69899 6222 ft 295 kts 65°
2026-05-04 14:52 26.33440 127.71954 6944 ft 307 kts 62°
2026-05-04 14:52 26.34525 127.74037 7741 ft 312 kts 59°
2026-05-04 14:52 26.35678 127.76117 8553 ft 318 kts 57°
2026-05-04 14:52 26.36876 127.78196 9477 ft 320 kts 57°
2026-05-04 14:53 26.38104 127.80296 10269 ft 328 kts 55°
2026-05-04 14:53 26.39385 127.82445 10662 ft 350 kts 55°
2026-05-04 14:53 26.40819 127.84824 10867 ft 379 kts 54°
2026-05-04 14:53 26.42328 127.87316 11182 ft 402 kts 54°
2026-05-04 14:54 26.43915 127.89936 11911 ft 413 kts 54°
2026-05-04 14:54 26.45535 127.92609 12857 ft 419 kts 54°
2026-05-04 14:54 26.47176 127.95315 13873 ft 423 kts 54°
2026-05-04 14:54 26.48832 127.98050 14779 ft 429 kts 54°
2026-05-04 14:55 26.50511 128.00823 15613 ft 435 kts 54°
2026-05-04 14:55 26.52219 128.03643 16444 ft 443 kts 54°
2026-05-04 14:55 26.53963 128.06525 17216 ft 451 kts 54°
2026-05-04 14:55 26.55733 128.09452 18070 ft 457 kts 54°
2026-05-04 14:56 26.57520 128.12410 18883 ft 462 kts 54°
2026-05-04 14:56 26.59330 128.15407 19562 ft 468 kts 54°
2026-05-04 14:56 26.61163 128.18446 20260 ft 474 kts 54°
2026-05-04 14:56 26.63015 128.21518 20982 ft 479 kts 54°
2026-05-04 14:57 26.64884 128.24622 21717 ft 484 kts 54°
2026-05-04 14:57 26.66773 128.27758 22369 ft 490 kts 54°
2026-05-04 14:57 26.68705 128.30936 22951 ft 498 kts 52°
2026-05-04 14:57 26.70817 128.34035 23520 ft 504 kts 49°
2026-05-04 14:58 26.73015 128.37103 24075 ft 508 kts 48°
2026-05-04 14:58 26.75245 128.40187 24660 ft 511 kts 48°
2026-05-04 14:58 26.77485 128.43297 25228 ft 515 kts 49°
2026-05-04 14:58 26.79736 128.46444 25795 ft 520 kts 49°
2026-05-04 14:59 26.81995 128.49623 26339 ft 524 kts 49°
2026-05-04 14:59 26.84267 128.52831 26889 ft 529 kts 49°
2026-05-04 14:59 26.88900 128.59374 27768 ft 541 kts 49°
2026-05-04 15:00 26.91384 128.62537 28287 ft 542 kts 42°
2026-05-04 15:00 26.94178 128.65365 28812 ft 541 kts 35°
2026-05-04 15:00 26.97189 128.67890 29381 ft 540 kts 30°
2026-05-04 15:01 27.03728 128.72039 30271 ft 544 kts 23°
2026-05-04 15:01 27.07100 128.74021 30546 ft 549 kts 22°
2026-05-04 15:01 27.10486 128.76014 30982 ft 550 kts 22°
2026-05-04 15:01 27.13860 128.78022 31559 ft 547 kts 22°
2026-05-04 15:02 27.17204 128.80034 32141 ft 545 kts 22°
2026-05-04 15:02 27.20542 128.82058 32664 ft 544 kts 22°
2026-05-04 15:02 27.23881 128.84090 33087 ft 547 kts 21°
2026-05-04 15:02 27.27234 128.86133 33460 ft 549 kts 21°
2026-05-04 15:03 27.30585 128.88178 33947 ft 548 kts 21°
2026-05-04 15:03 27.33919 128.90216 34474 ft 544 kts 21°
2026-05-04 15:03 27.37234 128.92245 35000 ft 540 kts 21°
2026-05-04 15:03 27.40530 128.94261 35459 ft 539 kts 21°
2026-05-04 15:04 27.43782 128.96248 35808 ft 540 kts 21°
2026-05-04 15:04 27.47093 128.98268 36120 ft 541 kts 21°
2026-05-04 15:04 27.50399 129.00288 36522 ft 540 kts 21°
2026-05-04 15:04 27.53691 129.02305 36950 ft 538 kts 21°
2026-05-04 15:05 27.60310 129.06356 37039 ft 542 kts 21°
2026-05-04 15:05 27.66901 129.10407 37036 ft 536 kts 21°
2026-05-04 15:06 27.73435 129.14425 37036 ft 534 kts 21°
2026-05-04 15:07 27.83207 129.20437 37046 ft 534 kts 21°
2026-05-04 15:07 27.89739 129.24463 37043 ft 536 kts 21°
2026-05-04 15:08 27.96290 129.28508 37077 ft 537 kts 21°
2026-05-04 15:08 28.02873 129.32578 37164 ft 541 kts 21°
2026-05-04 15:09 28.09487 129.36675 37158 ft 542 kts 21°
2026-05-04 15:09 28.16084 129.40770 37155 ft 540 kts 21°
2026-05-04 15:10 28.25943 129.46896 37156 ft 540 kts 21°
2026-05-04 15:11 28.35817 129.53043 37148 ft 540 kts 21°
2026-05-04 15:11 28.41979 129.58011 37115 ft 560 kts 46°
2026-05-04 15:11 28.44154 129.61710 37147 ft 567 kts 62°
2026-05-04 15:12 28.45477 129.65883 37102 ft 568 kts 81°
2026-05-04 15:12 28.46326 129.74766 37140 ft 567 kts 87°
2026-05-04 15:13 28.47122 129.83662 37126 ft 572 kts 85°
2026-05-04 15:13 28.48078 129.92650 37127 ft 575 kts 85°
2026-05-04 15:14 28.49061 130.01681 37144 ft 575 kts 85°
2026-05-04 15:14 28.50334 130.10647 37133 ft 576 kts 74°
2026-05-04 15:15 28.53267 130.19074 37147 ft 572 kts 60°
2026-05-04 15:15 28.57591 130.26580 37157 ft 566 kts 51°
2026-05-04 15:16 28.64423 130.37516 37149 ft 565 kts 52°
2026-05-04 15:17 28.71091 130.48571 37170 ft 564 kts 52°
2026-05-04 15:17 28.77001 130.58381 37144 ft 565 kts 52°
2026-05-04 15:18 28.82194 130.67021 37147 ft 566 kts 52°
2026-05-04 15:19 28.88147 130.76954 37158 ft 568 kts 52°
2026-05-04 15:19 28.94840 130.88151 37154 ft 570 kts 52°
2026-05-04 15:20 28.99305 130.95637 37172 ft 570 kts 53°
2026-05-04 15:20 29.03777 131.03148 37154 ft 572 kts 53°
2026-05-04 15:21 29.08248 131.10670 37152 ft 572 kts 53°
2026-05-04 15:22 29.14941 131.21957 37148 ft 571 kts 53°
2026-05-04 15:22 29.21614 131.33242 37144 ft 570 kts 53°
2026-05-04 15:23 29.26043 131.40748 37159 ft 569 kts 53°
2026-05-04 15:23 29.30436 131.48207 37150 ft 568 kts 53°
2026-05-04 15:24 29.39246 131.63207 37180 ft 567 kts 53°
2026-05-04 15:25 29.43652 131.70732 37150 ft 569 kts 53°
2026-05-04 15:26 29.50253 131.82038 37141 ft 569 kts 53°
2026-05-04 15:26 29.56858 131.93381 37148 ft 570 kts 53°
2026-05-04 15:27 29.63466 132.04761 37135 ft 570 kts 53°
2026-05-04 15:28 29.70621 132.15615 37148 ft 567 kts 46°
2026-05-04 15:29 29.78212 132.26075 37133 ft 567 kts 46°
2026-05-04 15:30 29.95763 132.50777 37126 ft 570 kts 47°
2026-05-04 15:31 30.03272 132.61404 37120 ft 571 kts 47°
2026-05-04 15:32 30.15811 132.79210 37129 ft 572 kts 47°
2026-05-04 15:34 30.28331 132.97071 37127 ft 574 kts 47°
2026-05-04 15:34 30.35871 133.07867 37132 ft 576 kts 47°
2026-05-04 15:35 30.43424 133.18709 37126 ft 577 kts 47°
2026-05-04 15:36 30.50976 133.29584 37119 ft 577 kts 47°
2026-05-04 15:36 30.56001 133.36833 37125 ft 576 kts 47°
2026-05-04 15:37 30.61022 133.44091 37102 ft 577 kts 47°
2026-05-04 15:37 30.66030 133.51344 37125 ft 575 kts 47°
2026-05-04 15:38 30.71027 133.58595 37179 ft 575 kts 47°
2026-05-04 15:38 30.76027 133.65863 37118 ft 576 kts 47°
2026-05-04 15:39 30.81026 133.73142 37128 ft 575 kts 47°
2026-05-04 15:40 30.88517 133.84070 37112 ft 578 kts 47°
2026-05-04 15:40 30.93522 133.91391 37122 ft 578 kts 48°
2026-05-04 15:41 30.98526 133.98727 37143 ft 580 kts 48°
2026-05-04 15:41 31.03544 134.06095 37111 ft 580 kts 48°
2026-05-04 15:42 31.08561 134.13478 37164 ft 580 kts 48°
2026-05-04 15:42 31.13582 134.20879 37116 ft 582 kts 48°
2026-05-04 15:43 31.18603 134.28293 37116 ft 582 kts 48°
2026-05-04 15:43 31.23627 134.35727 37119 ft 584 kts 48°
2026-05-04 15:44 31.28653 134.43177 37097 ft 584 kts 48°
2026-05-04 15:44 31.33676 134.50640 37141 ft 584 kts 48°
2026-05-04 15:45 31.38694 134.58109 37119 ft 584 kts 48°
2026-05-04 15:45 31.43710 134.65587 37113 ft 583 kts 48°
2026-05-04 15:46 31.48718 134.73069 37116 ft 584 kts 48°
2026-05-04 15:46 31.53727 134.80568 37113 ft 584 kts 48°
2026-05-04 15:47 31.58730 134.88073 37131 ft 585 kts 49°
2026-05-04 15:47 31.63738 134.95600 37110 ft 585 kts 49°
2026-05-04 15:48 31.68741 135.03134 37092 ft 585 kts 49°
2026-05-04 15:48 31.76490 135.14022 37109 ft 581 kts 43°
2026-05-04 15:49 31.81907 135.20983 37108 ft 581 kts 43°
2026-05-04 15:49 31.87346 135.27999 37106 ft 581 kts 43°
2026-05-04 15:50 31.92754 135.35064 37106 ft 582 kts 44°
2026-05-04 15:50 31.98153 135.42158 37111 ft 582 kts 44°
2026-05-04 15:51 32.03553 135.49264 37108 ft 582 kts 44°
2026-05-04 15:51 32.08956 135.56380 37107 ft 582 kts 44°
2026-05-04 15:52 32.14359 135.63506 37109 ft 583 kts 44°
2026-05-04 15:52 32.19768 135.70656 37100 ft 584 kts 44°
2026-05-04 15:53 32.25172 135.77815 37106 ft 584 kts 44°
2026-05-04 15:53 32.30572 135.84981 37096 ft 585 kts 44°
2026-05-04 15:54 32.35980 135.92174 37096 ft 585 kts 44°
2026-05-04 15:54 32.41389 135.99381 37101 ft 585 kts 44°
2026-05-04 15:55 32.46766 136.06542 37089 ft 586 kts 44°
2026-05-04 15:55 32.52229 136.13801 37082 ft 586 kts 44°
2026-05-04 15:56 32.57618 136.20977 37091 ft 587 kts 44°
2026-05-04 15:56 32.63043 136.28221 37083 ft 588 kts 44°
2026-05-04 15:57 32.68471 136.35487 37079 ft 588 kts 44°
2026-05-04 15:57 32.73905 136.42774 37077 ft 590 kts 45°
2026-05-04 15:58 32.79346 136.50086 37073 ft 590 kts 45°
2026-05-04 15:58 32.84779 136.57401 37075 ft 590 kts 45°
2026-05-04 15:59 32.90209 136.64727 37070 ft 591 kts 45°
2026-05-04 15:59 32.95638 136.72076 37070 ft 590 kts 45°
2026-05-04 16:00 33.01049 136.79433 37072 ft 590 kts 45°
2026-05-04 16:00 33.06450 136.86790 37073 ft 590 kts 45°
2026-05-04 16:01 33.11855 136.94165 37071 ft 590 kts 45°
2026-05-04 16:01 33.17245 137.01536 37109 ft 590 kts 45°
2026-05-04 16:02 33.21735 137.07687 37073 ft 591 kts 45°
2026-05-04 16:03 33.29861 137.18833 37070 ft 590 kts 45°
2026-05-04 16:03 33.36125 137.27443 37071 ft 590 kts 45°
2026-05-04 16:04 33.40605 137.33616 37065 ft 590 kts 45°
2026-05-04 16:04 33.48666 137.44752 37059 ft 590 kts 45°
2026-05-04 16:05 33.54037 137.52192 37061 ft 590 kts 45°
2026-05-04 16:06 33.61823 137.63627 37053 ft 593 kts 54°
2026-05-04 16:07 33.69855 137.80972 37027 ft 596 kts 62°
2026-05-04 16:08 33.77756 137.98468 37023 ft 596 kts 61°
2026-05-04 16:08 33.83760 138.11652 35844 ft 605 kts 62°
2026-05-04 16:09 33.87786 138.20554 34485 ft 603 kts 62°
2026-05-04 16:09 33.91749 138.29335 33507 ft 592 kts 63°
2026-05-04 16:10 33.95619 138.37983 32558 ft 581 kts 63°
2026-05-04 16:11 34.01252 138.50654 31212 ft 564 kts 63°
2026-05-04 16:11 34.03098 138.54812 30784 ft 559 kts 63°
2026-05-04 16:12 34.08529 138.67069 29365 ft 546 kts 63°
2026-05-04 16:12 34.13818 138.79049 27990 ft 532 kts 63°
2026-05-04 16:13 34.17264 138.86876 27123 ft 524 kts 62°
2026-05-04 16:13 34.20636 138.94550 26250 ft 518 kts 62°
2026-05-04 16:14 34.23964 139.02216 25386 ft 512 kts 62°
2026-05-04 16:14 34.27242 139.09816 24499 ft 508 kts 62°
2026-05-04 16:15 34.31571 139.21430 23127 ft 503 kts 68°
2026-05-04 16:16 34.34207 139.29209 22215 ft 496 kts 68°
2026-05-04 16:16 34.38121 139.40624 20906 ft 484 kts 67°
2026-05-04 16:17 34.40691 139.48093 20054 ft 477 kts 68°
2026-05-04 16:18 34.44463 139.59092 18756 ft 466 kts 68°
2026-05-04 16:18 34.45698 139.62704 18308 ft 463 kts 68°
2026-05-04 16:19 34.50436 139.72515 16906 ft 442 kts 40°
2026-05-04 16:19 34.55326 139.76707 16025 ft 423 kts 24°
2026-05-04 16:20 34.62876 139.82086 14739 ft 416 kts 25°
2026-05-04 16:20 34.67836 139.85554 13843 ft 400 kts 15°
2026-05-04 16:21 34.75609 139.86836 12593 ft 370 kts 358°
2026-05-04 16:22 34.80695 139.87546 11753 ft 366 kts 359°
2026-05-04 16:22 34.88215 139.88628 10554 ft 358 kts
2026-05-04 16:23 34.95288 139.89439 10081 ft 311 kts 344°
2026-05-04 16:24 35.03127 139.86892 9057 ft 288 kts 340°
2026-05-04 16:25 35.06918 139.85686 8291 ft 272 kts 341°
2026-05-04 16:26 35.14136 139.83394 7080 ft 266 kts 342°
2026-05-04 16:26 35.19473 139.81702 6163 ft 264 kts 342°
2026-05-04 16:27 35.23036 139.80572 5506 ft 262 kts 343°
2026-05-04 16:28 35.28258 139.78912 4562 ft 258 kts 343°
2026-05-04 16:28 35.33250 139.79263 3728 ft 248 kts 28°
2026-05-04 16:29 35.38680 139.84209 2860 ft 232 kts 30°
2026-05-04 16:30 35.42511 139.86860 2225 ft 185 kts 355°
2026-05-04 16:31 35.44863 139.86592 1917 ft 149 kts 335°
2026-05-04 16:31 35.47261 139.85227 1564 ft 115 kts 332°
2026-05-04 16:32 35.49301 139.83814 1191 ft 109 kts 332°
2026-05-04 16:33 35.50689 139.82835 875 ft 119 kts 329°
2026-05-04 16:33 35.52080 139.81850 539 ft 120 kts 333°
2026-05-04 16:34 35.53561 139.80802 247 ft 122 kts 332°
2026-05-04 16:34 35.54284 139.80285 57 ft 119 kts 331°
2026-05-04 16:35 35.55450 139.79399 30 ft 32 kts 306°
2026-05-04 16:35 35.55552 139.79008 31 ft 15 kts 330°
2026-05-04 16:36 35.55641 139.78945 31 ft 15 kts 330°
2026-05-04 16:36 35.55661 139.78777 31 ft 12 kts 240°
2026-05-04 16:37 35.55723 139.78649 29 ft 6 kts 328°
2026-05-04 16:37 35.55758 139.78620 29 ft 6 kts 332°
2026-05-04 16:37 35.55882 139.78536 27 ft 15 kts 329°
2026-05-04 16:38 35.56026 139.78552 27 ft 15 kts 62°
2026-05-04 16:39 35.55867 139.78785 28 ft 21 kts 150°
2026-05-04 16:39 35.55607 139.78970 31 ft 22 kts 150°
2026-05-04 16:40 35.55435 139.79007 32 ft 11 kts 233°
2026-05-04 16:40 35.55320 139.78950 32 ft 11 kts 150°
2026-05-04 16:41 35.55235 139.78963 32 ft 6 kts 235°
2026-05-04 16:41 35.55218 139.78925 32 ft 0 kts 239°
2026-05-04 16:42 35.55215 139.78918 32 ft 0 kts 239°